Regional Weather Roundup
Issued by NWS

Home | Current Version | Previous Version | Graphics & Text | Print | Product List | Glossary On
Versions: 1 2 3 4 5 6 7 8 9 10 11 12 13 14 15 16 17 18 19 20 21 22 23 24 25 26 27 28 29 30 31 32 33 34 35 36 37 38 39 40 41 42 43 44 45 46 47 48 49 50
000
ASUS45 KCYS 270210
RWRWY

WYOMING REGIONAL WEATHER ROUNDUP
NATIONAL WEATHER SERVICE CHEYENNE WY
800 PM MDT MON SEP 26 2016

NOTE:  "FAIR" INDICATES FEW OR NO CLOUDS BELOW 12,000 FEET
WITH NO SIGNIFICANT WEATHER AND/OR OBSTRUCTIONS TO VISIBILITY.

WYZ001-270300-
YELLOWSTONE NATIONAL PARK

CITY           SKY/WX    TMP DP  RH WIND       PRES   REMARKS
LK YELLOWSTONE   N/A     44  41  89 CALM      30.47S
W YELLOWSTONE  NOT AVBL

$$
WYZ002>013-054>058-071-098>099-270300-
NORTHERN WYOMING

CITY           SKY/WX    TMP DP  RH WIND       PRES   REMARKS
JACKSON        CLEAR     59  45  58 CALM      30.37R
CODY           FAIR      59  47  64 S3        30.30S
GREYBULL       FAIR      63  48  58 SE3       30.24S
WORLAND        FAIR      56  48  74 E5        30.25S
SHERIDAN       FAIR      56  48  74 S3        30.22F
BUFFALO        FAIR      56  46  69 SW8       30.29F
GILLETTE       FAIR      51  46  83 W8        30.25F
HULETT         FAIR      55  43  62 S3        30.25F
NEWCASTLE      FAIR      55  41  58 N8        30.27R

$$
WYZ014>020-022>026-101>103-270300-
CENTRAL WYOMING

CITY           SKY/WX    TMP DP  RH WIND       PRES   REMARKS
BIG PINEY      FAIR      60  37  42 S3        30.39S
PINEDALE       FAIR      55  36  47 SE3       30.40S
DUBOIS         FAIR      52  41  66 S5        30.41S
LANDER         FAIR      59  44  57 SW6       30.31F
RIVERTON       FAIR      58  44  60 CALM      30.33S
CASPER         FAIR      55  44  66 NW6       30.31S
DOUGLAS        FAIR      55  42  61 E6        30.31R

$$
WYZ021-027>030-104>119-270300-
SOUTHERN WYOMING

CITY           SKY/WX    TMP DP  RH WIND       PRES   REMARKS
EVANSTON       FAIR      62  34  35 N5        30.40S
FORT BRIDGER   FAIR      64  33  31 CALM      30.42S
ROCK SPRINGS   FAIR      58  38  47 E5        30.39S
DIXON          FAIR      52  40  61 NE6       30.41S
RAWLINS        FAIR      52  38  58 N9        30.40S
SARATOGA       FAIR      52  36  54 W7        30.42S
LARAMIE        FAIR      55  37  50 N10       30.41R
CHEYENNE       FAIR      57  38  48 E6        30.37R
TORRINGTON     FAIR      59  41  51 NE8       30.25R
PINE BLUFFS    FAIR      55  36  47 CALM      30.33R

$$



USA.gov is the U.S. government's official web portal to all federal, state and local government web resources and services.